TimeCDT,TemperatureF,Dew PointF,Humidity,Sea Level PressureIn,VisibilityMPH,Wind Direction,Wind SpeedMPH,Gust SpeedMPH,PrecipitationIn,Events,Conditions,WindDirDegrees,DateUTC
12:15 AM,82.4,73.4,74,30.12,10.0,South,4.6,-,N/A,,Clear,180,2013-07-10 05:15:00
12:35 AM,82.4,73.4,74,30.11,10.0,South,5.8,-,N/A,,Clear,180,2013-07-10 05:35:00
12:55 AM,82.4,73.4,74,30.11,10.0,South,4.6,-,N/A,,Clear,180,2013-07-10 05:55:00
1:15 AM,82.4,73.4,74,30.10,10.0,South,5.8,-,N/A,,Clear,180,2013-07-10 06:15:00
1:35 AM,82.4,73.4,74,30.10,10.0,Calm,Calm,-,N/A,,Clear,0,2013-07-10 06:35:00
1:55 AM,80.6,73.4,79,30.09,10.0,SSW,3.5,-,N/A,,Clear,200,2013-07-10 06:55:00
2:15 AM,80.6,73.4,79,30.09,10.0,SSW,3.5,-,N/A,,Clear,200,2013-07-10 07:15:00
2:35 AM,80.6,73.4,79,30.10,10.0,Calm,Calm,-,N/A,,Clear,0,2013-07-10 07:35:00
2:55 AM,80.6,73.4,79,30.10,10.0,Calm,Calm,-,N/A,,Clear,0,2013-07-10 07:55:00
3:15 AM,80.6,73.4,79,30.11,10.0,Calm,Calm,-,N/A,,Clear,0,2013-07-10 08:15:00
3:35 AM,80.6,73.4,79,30.10,10.0,Calm,Calm,-,N/A,,Clear,0,2013-07-10 08:35:00
3:55 AM,80.6,73.4,79,30.10,10.0,Calm,Calm,-,N/A,,Clear,0,2013-07-10 08:55:00
4:15 AM,78.8,73.4,83,30.10,10.0,Calm,Calm,-,N/A,,Clear,0,2013-07-10 09:15:00
4:35 AM,78.8,73.4,83,30.10,10.0,Calm,Calm,-,N/A,,Clear,0,2013-07-10 09:35:00
4:55 AM,78.8,73.4,83,30.11,10.0,Calm,Calm,-,N/A,,Clear,0,2013-07-10 09:55:00
5:15 AM,78.8,73.4,83,30.11,10.0,Calm,Calm,-,N/A,,Clear,0,2013-07-10 10:15:00
5:35 AM,78.8,73.4,83,30.11,10.0,Calm,Calm,-,N/A,,Clear,0,2013-07-10 10:35:00
5:55 AM,78.8,71.6,78,30.11,10.0,Calm,Calm,-,N/A,,Clear,0,2013-07-10 10:55:00
6:15 AM,78.8,73.4,83,30.11,10.0,SSW,3.5,-,N/A,,Clear,210,2013-07-10 11:15:00
6:35 AM,78.8,73.4,83,30.11,10.0,Calm,Calm,-,N/A,,Clear,0,2013-07-10 11:35:00
6:55 AM,80.6,73.4,79,30.11,10.0,Calm,Calm,-,N/A,,Clear,0,2013-07-10 11:55:00
7:15 AM,80.6,73.4,79,30.11,10.0,SSW,3.5,-,N/A,,Clear,210,2013-07-10 12:15:00
7:35 AM,80.6,73.4,79,30.12,10.0,Calm,Calm,-,N/A,,Clear,0,2013-07-10 12:35:00
7:55 AM,82.4,73.4,74,30.12,10.0,Calm,Calm,-,N/A,,Clear,0,2013-07-10 12:55:00
8:15 AM,84.2,73.4,70,30.12,10.0,SSW,3.5,-,N/A,,Clear,210,2013-07-10 13:15:00
8:35 AM,84.2,73.4,70,30.12,10.0,WSW,4.6,-,N/A,,Clear,250,2013-07-10 13:35:00
8:55 AM,84.2,73.4,70,30.12,10.0,SSW,5.8,-,N/A,,Clear,210,2013-07-10 13:55:00
9:15 AM,86.0,71.6,62,30.12,10.0,SW,5.8,-,N/A,,Clear,230,2013-07-10 14:15:00
9:35 AM,87.8,71.6,58,30.12,10.0,SW,4.6,-,N/A,,Partly Cloudy,230,2013-07-10 14:35:00
9:55 AM,87.8,71.6,58,30.12,10.0,West,5.8,-,N/A,,Scattered Clouds,270,2013-07-10 14:55:00
10:15 AM,87.8,71.6,58,30.12,10.0,WSW,5.8,-,N/A,,Scattered Clouds,240,2013-07-10 15:15:00
10:35 AM,87.8,71.6,58,30.12,10.0,West,5.8,-,N/A,,Partly Cloudy,260,2013-07-10 15:35:00
10:55 AM,89.6,71.6,55,30.12,10.0,South,4.6,-,N/A,,Partly Cloudy,170,2013-07-10 15:55:00
11:15 AM,89.6,71.6,55,30.12,10.0,Calm,Calm,-,N/A,,Partly Cloudy,0,2013-07-10 16:15:00
11:35 AM,89.6,71.6,55,30.12,10.0,West,4.6,-,N/A,,Scattered Clouds,280,2013-07-10 16:35:00
11:55 AM,87.8,73.4,62,30.11,10.0,NNE,4.6,-,N/A,,Scattered Clouds,20,2013-07-10 16:55:00
12:15 PM,89.6,73.4,59,30.11,10.0,North,4.6,-,N/A,,Mostly Cloudy,350,2013-07-10 17:15:00
12:35 PM,89.6,73.4,59,30.10,10.0,North,6.9,-,N/A,,Mostly Cloudy,10,2013-07-10 17:35:00
12:55 PM,89.6,71.6,55,30.09,10.0,WNW,5.8,-,N/A,,Overcast,300,2013-07-10 17:55:00
1:15 PM,89.6,71.6,55,30.08,10.0,Calm,Calm,-,N/A,,Overcast,0,2013-07-10 18:15:00
1:35 PM,89.6,71.6,55,30.07,10.0,South,5.8,-,N/A,,Overcast,180,2013-07-10 18:35:00
1:55 PM,89.6,71.6,55,30.06,10.0,Calm,Calm,-,N/A,,Overcast,0,2013-07-10 18:55:00
2:15 PM,86.0,71.6,62,30.06,10.0,ESE,5.8,-,N/A,,Overcast,120,2013-07-10 19:15:00
2:35 PM,87.8,71.6,58,30.05,10.0,SE,4.6,-,N/A,,Scattered Clouds,140,2013-07-10 19:35:00
2:55 PM,91.4,71.6,52,30.04,10.0,WSW,5.8,-,N/A,,Scattered Clouds,240,2013-07-10 19:55:00
3:15 PM,93.2,71.6,49,30.03,10.0,SSW,3.5,-,N/A,,Scattered Clouds,210,2013-07-10 20:15:00
3:35 PM,89.6,73.4,59,30.03,9.0,West,3.5,-,N/A,,Mostly Cloudy,270,2013-07-10 20:35:00
3:55 PM,87.8,69.8,55,30.03,10.0,Calm,Calm,-,N/A,,Overcast,0,2013-07-10 20:55:00
4:15 PM,87.8,71.6,58,30.02,10.0,SW,5.8,-,N/A,,Overcast,230,2013-07-10 21:15:00
4:35 PM,82.4,69.8,66,30.02,9.0,SW,11.5,21.9,N/A,,Mostly Cloudy,230,2013-07-10 21:35:00
4:55 PM,84.2,71.6,66,30.03,10.0,SW,5.8,-,N/A,,Mostly Cloudy,230,2013-07-10 21:55:00
5:15 PM,84.2,75.2,74,30.02,10.0,Calm,Calm,-,0.01,,Scattered Clouds,0,2013-07-10 22:15:00
5:35 PM,87.8,75.2,66,30.02,10.0,SW,6.9,-,0.01,,Scattered Clouds,220,2013-07-10 22:35:00
5:55 PM,87.8,75.2,66,30.01,10.0,SSW,4.6,-,0.01,,Clear,200,2013-07-10 22:55:00
6:15 PM,86.0,73.4,66,30.01,10.0,SSW,9.2,-,N/A,,Clear,200,2013-07-10 23:15:00
6:35 PM,84.2,73.4,70,30.01,10.0,SW,9.2,-,N/A,,Partly Cloudy,220,2013-07-10 23:35:00
6:55 PM,84.2,73.4,70,30.01,10.0,South,4.6,-,N/A,,Partly Cloudy,190,2013-07-10 23:55:00
7:15 PM,82.4,71.6,70,30.02,10.0,SSW,5.8,-,N/A,,Clear,210,2013-07-11 00:15:00
7:35 PM,82.4,71.6,70,30.00,10.0,South,3.5,-,N/A,,Clear,170,2013-07-11 00:35:00
7:55 PM,84.2,71.6,66,30.01,10.0,SSW,5.8,-,N/A,,Clear,200,2013-07-11 00:55:00
8:15 PM,82.4,71.6,70,30.01,10.0,SSW,3.5,-,N/A,,Clear,200,2013-07-11 01:15:00
8:35 PM,82.4,73.4,74,30.00,10.0,South,4.6,-,N/A,,Clear,180,2013-07-11 01:35:00
8:55 PM,82.4,73.4,74,30.00,10.0,Calm,Calm,-,N/A,,Clear,0,2013-07-11 01:55:00
9:15 PM,82.4,73.4,74,30.00,10.0,Calm,Calm,-,N/A,,Clear,0,2013-07-11 02:15:00
9:35 PM,82.4,73.4,74,30.00,10.0,South,3.5,-,N/A,,Clear,190,2013-07-11 02:35:00
9:55 PM,82.4,73.4,74,30.01,10.0,South,4.6,-,N/A,,Clear,170,2013-07-11 02:55:00
10:15 PM,82.4,71.6,70,30.01,10.0,South,4.6,-,N/A,,Clear,180,2013-07-11 03:15:00
10:35 PM,82.4,71.6,70,30.01,10.0,South,4.6,-,N/A,,Clear,180,2013-07-11 03:35:00
10:55 PM,82.4,73.4,74,30.02,10.0,South,3.5,-,N/A,,Partly Cloudy,170,2013-07-11 03:55:00
11:15 PM,82.4,73.4,74,30.02,10.0,South,4.6,-,N/A,,Mostly Cloudy,180,2013-07-11 04:15:00
11:35 PM,82.4,73.4,74,30.01,10.0,South,4.6,-,N/A,,Scattered Clouds,170,2013-07-11 04:35:00
11:55 PM,82.4,73.4,74,30.01,10.0,South,4.6,-,N/A,,Clear,180,2013-07-11 04:55:00